Weather History for Palmer, AK

Change the Weather History Date:

Wednesday, February 5, 2014

  Actual Average Record
Temperature  
Mean Temperature 18 °F -  
Max Temperature 24 °F 24 °F 46 °F (1976)
Min Temperature 12 °F 6 °F -31 °F (1999)
Degree Days  
Heating Degree Days 47    
Moisture  
Dew Point 7 °F    
Average Humidity 65    
Maximum Humidity 84    
Minimum Humidity 50    
Precipitation  
Precipitation 0.00 in - - ()
Sea Level Pressure  
Sea Level Pressure 30.67 in    
Wind  
Wind Speed 7 mph (North)    
Max Wind Speed 10 mph    
Max Gust Speed -    
Visibility 10 miles    
Events      
Averages and records for this station are not official NWS values.
T = Trace of Precipitation, MM = Missing Value Source: NWS Daily Summary

Daily Weather History Graph

Daily Weather History Graph

Search for Another Location

Airport:

Trip Planner

Search our weather history database for the weather conditions in past years. The results will help you decide how hot, cold, wet, or windy it might be!

Date:

Astronomy

Feb. 05, 2014 Rise Set
Actual Time 9:07 AM AKST 5:13 PM AKST
Civil Twilight 8:18 AM AKST 6:02 PM AKST
Nautical Twilight 7:26 AM AKST 6:55 PM AKST
Astronomical Twilight 6:35 AM AKST 7:46 PM AKST
Moon 10:24 AM AKST (2/5) 1:15 AM AKST (2/5)
Length of Visible Light 9h 44m
Length of Day
8h 05m
Waxing Crescent, 40% of the Moon is Illuminated
Feb 5
Waxing Crescent
Feb 6
First Quarter
Feb 14
Full
Feb 22
Last Quarter
Feb 28
New

Hourly Weather History & Observations

Time (AKST) Temp. Windchill Dew Point Humidity Pressure Visibility Wind Dir Wind Speed Gust Speed Precip Events Conditions
12:53 AM 19.0 °F 7.5 °F 6.1 °F 57% 30.74 in 10.0 mi North 10.4 mph - N/A   Clear
1:53 AM 19.0 °F 9.0 °F 6.1 °F 57% 30.74 in 10.0 mi North 8.1 mph - N/A   Clear
2:53 AM 18.0 °F 6.9 °F 6.1 °F 60% 30.73 in 10.0 mi North 9.2 mph - N/A   Clear
3:53 AM 18.0 °F 6.9 °F 5.0 °F 57% 30.73 in 10.0 mi North 9.2 mph - N/A   Clear
4:53 AM 17.1 °F 5.8 °F 5.0 °F 59% 30.72 in 10.0 mi North 9.2 mph - N/A   Clear
5:53 AM 17.1 °F 6.6 °F 5.0 °F 59% 30.70 in 10.0 mi North 8.1 mph - N/A   Clear
6:53 AM 16.0 °F 4.4 °F 3.9 °F 59% 30.70 in 10.0 mi North 9.2 mph - N/A   Clear
7:53 AM 16.0 °F 5.3 °F 3.9 °F 59% 30.69 in 10.0 mi North 8.1 mph - N/A   Clear
8:53 AM 16.0 °F 7.4 °F 3.9 °F 59% 30.69 in 10.0 mi North 5.8 mph - N/A   Clear
9:53 AM 15.1 °F 5.2 °F 5.0 °F 64% 30.69 in 10.0 mi North 6.9 mph - N/A   Clear
10:53 AM 18.0 °F 8.7 °F 5.0 °F 57% 30.68 in 10.0 mi North 6.9 mph - N/A   Clear
11:53 AM 19.9 °F 11.1 °F 6.1 °F 55% 30.67 in 10.0 mi North 6.9 mph - N/A   Clear
12:53 PM 23.0 °F 18.4 °F 7.0 °F 50% 30.65 in 10.0 mi North 3.5 mph - N/A   Clear
1:53 PM 24.1 °F 19.7 °F 8.1 °F 51% 30.63 in 10.0 mi ENE 3.5 mph - N/A   Clear
2:53 PM 23.0 °F 17.0 °F 14.0 °F 68% 30.63 in 10.0 mi SSW 4.6 mph - N/A   Clear
3:53 PM 21.9 °F 15.7 °F 12.9 °F 68% 30.63 in 10.0 mi WSW 4.6 mph - N/A   Clear
4:53 PM 19.0 °F - 10.9 °F 71% 30.63 in 10.0 mi Calm Calm - N/A   Clear
5:53 PM 16.0 °F - 12.0 °F 84% 30.62 in 10.0 mi Calm Calm - N/A   Clear
6:53 PM 16.0 °F - 10.9 °F 81% 30.64 in 10.0 mi Calm Calm - N/A   Clear
7:53 PM 16.0 °F 7.4 °F 10.9 °F 81% 30.63 in 10.0 mi North 5.8 mph - N/A   Clear
8:53 PM 14.0 °F 8.2 °F 9.0 °F 80% 30.62 in 10.0 mi North 3.5 mph - N/A   Clear
9:53 PM 12.0 °F - 6.1 °F 77% 30.61 in 10.0 mi Calm Calm - N/A   Clear
10:53 PM 14.0 °F 6.5 °F 7.0 °F 74% 30.60 in 10.0 mi North 4.6 mph - N/A   Clear
11:53 PM 12.9 °F 6.9 °F 5.0 °F 71% 30.59 in 10.0 mi North 3.5 mph - N/A   Clear